User: anonymous   Login
Location: Unspecified
(0.0000°N, 0.0000°E)
Time: 22:20:27
(UTC+00:00)
Language:

LEMUR 2 AMANDA-SVANTE - Orbit

View from above orbital plane
View from above orbital plane
View from above satellite
View from above satellite

Ground track
Ground track

The orbit is defined by the following mean orbital elements,

1 48269U          26145.45501863 +.00000000 +00000-0 +96640-3 0 00000
2 48269  97.5766 223.1675 0001184  26.6301 333.5002 15.32738197    01
Epoch (UTC): 25 May 2026 10:55:13
Eccentricity: 0.0001184
inclination: 97.5766°
perigee height: 467 km
apogee height: 468 km
right ascension of ascending node: 223.1675°
argument of perigee: 26.6301°
revolutions per day: 15.32738197
mean anomaly at epoch: 333.5002°

The dashed part of the orbit path shows where the satellite is in the earth's shadow,  

DLR